Culdrose, United Kingdom

11:17 PM BST on October 21, 2017 (GMT +0100)
Culdrose Navy

Weather History for EGDR - June, 2013

Change the Weather History Date:

Monday, June 17, 2013

  Actual Average Record
Temperature  
Mean Temperature 58 °F -  
Max Temperature 64 °F 62 °F 73 °F (2000)
Min Temperature 53 °F 52 °F 44 °F (2008)
Degree Days  
Heating Degree Days 6    
Growing Degree Days 8 (Base 50)    
Moisture  
Dew Point 54 °F    
Average Humidity 90    
Maximum Humidity 100    
Minimum Humidity 64    
Precipitation  
Precipitation 0.08 in - - ()
Sea Level Pressure  
Sea Level Pressure 29.84 in    
Wind  
Wind Speed 11 mph ()    
Max Wind Speed 20 mph    
Max Gust Speed 30 mph    
Visibility 3.4 miles    
Events Rain    
Averages and records for this station are not official NWS values.
T = Trace of Precipitation, MM = Missing Value Source: Averaged Metar Reports

Daily Weather History Graph

Daily Weather History Graph

Search for Another Location

Airport or City:

Trip Planner

Search our weather history database for the weather conditions in past years. The results will help you decide how hot, cold, wet, or windy it might be!

Date:

Astronomy

Jun. 17, 2013 Rise Set
Actual Time 5:10 AM BST 9:33 PM BST
Civil Twilight 4:26 AM BST 10:18 PM BST
Nautical Twilight 3:20 AM BST 11:23 PM BST
Astronomical Twilight 1:54 AM BST 12:49 AM BST
Moon 2:24 PM BST (6/17) 1:15 AM BST (6/17)
Length of Visible Light 17h 51m
Length of Day
16h 22m
First Quarter, 58% of the Moon is Illuminated
Jun 17
First Quarter
Jun 23
Full
Jun 30
Last Quarter
Jul 8
New
Jul 16
First Quarter

Hourly Weather History & Observations

Time (BST) Temp. Dew Point Humidity Pressure Visibility Wind Dir Wind Speed Gust Speed Precip Events Conditions
12:50 AM 55 °F 54 °F 95% 29.81 in 1 mi SE 11.5 mph - - Rain Light Drizzle
12:50 AM 55.4 °F 53.6 °F 94% 29.80 in 0.9 mi SE 11.5 mph - N/A   Light Drizzle
1:50 AM 55.4 °F 53.6 °F 94% 29.80 in 0.9 mi ESE 11.5 mph - N/A   Light Drizzle
2:50 AM 53.6 °F 53.6 °F 100% 29.77 in 0.9 mi East 11.5 mph - N/A   Light Drizzle
3:50 AM 54 °F 53 °F 95% 29.80 in 1 mi East 11.5 mph - - Rain Light Drizzle
3:50 AM 53.6 °F 53.6 °F 100% 29.77 in 1.2 mi East 11.5 mph - N/A   Light Drizzle
4:50 AM 53.6 °F 53.6 °F 100% 29.80 in 0.9 mi East 11.5 mph - N/A   Light Drizzle
5:50 AM 53.6 °F 53.6 °F 100% 29.80 in 1.6 mi East 13.8 mph - N/A   Light Drizzle
6:50 AM 54 °F 53 °F 95% 29.82 in 2 mi East 13.8 mph - - Rain Light Drizzle
6:50 AM 53.6 °F 53.6 °F 100% 29.80 in 1.9 mi East 13.8 mph - N/A   Overcast
7:50 AM 53.6 °F 53.6 °F 100% 29.80 in 1.2 mi East 15.0 mph - N/A   Mostly Cloudy
8:50 AM 53.6 °F 53.6 °F 100% 29.83 in 1.1 mi East 13.8 mph - N/A Rain Rain
9:50 AM 55 °F 54 °F 95% 29.84 in 2 mi East 17.3 mph - - Rain Light Rain
9:50 AM 55.4 °F 53.6 °F 94% 29.83 in 1.6 mi East 17.3 mph 28.8 mph N/A Rain Light Rain
10:50 AM 55.4 °F 53.6 °F 94% 29.83 in 1.9 mi East 17.3 mph 28.8 mph N/A Rain Light Rain
11:50 AM 55.4 °F 53.6 °F 94% 29.86 in 1.2 mi East 18.4 mph 29.9 mph N/A   Light Drizzle
12:50 PM 57 °F 56 °F 94% 29.87 in 3 mi East 18.4 mph - - Rain Light Drizzle
12:50 PM 57.2 °F 55.4 °F 94% 29.86 in 3.1 mi East 18.4 mph 29.9 mph N/A   Light Drizzle
1:50 PM 59.0 °F 53.6 °F 82% 29.86 in 6.2 mi East 17.3 mph 28.8 mph N/A   Haze
2:50 PM 60.8 °F 55.4 °F 82% 29.86 in 6.2 mi ENE 15.0 mph 26.5 mph N/A   Haze
3:50 PM 62 °F 54 °F 68% 29.87 in 7 mi East 19.6 mph - -   Haze
3:50 PM 60.8 °F 53.6 °F 77% 29.86 in 6.2 mi East 19.6 mph - N/A   Haze
4:50 PM 60.8 °F 53.6 °F 77% 29.83 in 6.2 mi ENE 11.5 mph - N/A   Haze
5:50 PM 62.6 °F 55.4 °F 77% 29.83 in 6.2 mi East 11.5 mph - N/A   Haze
6:50 PM 64 °F 55 °F 64% 29.84 in 10 mi ENE 9.2 mph - -   Haze
6:50 PM 64.4 °F 55.4 °F 73% 29.83 in 6.2 mi ENE 9.2 mph - N/A   Haze
7:50 PM 62.6 °F 55.4 °F 77% 29.86 in 6.2 mi NE 6.9 mph - N/A   Haze
8:50 PM 62.6 °F 57.2 °F 82% 29.86 in 4.3 mi NE 6.9 mph - N/A Rain Light Rain
9:50 PM 57 °F 56 °F 93% 29.89 in 4 mi North 4.6 mph - - Rain Light Rain
9:50 PM 57.2 °F 55.4 °F 94% 29.89 in 4.3 mi North 4.6 mph - N/A   Overcast
10:50 PM 59.0 °F 57.2 °F 94% 29.89 in 4.3 mi ENE 4.6 mph - N/A Rain Light Rain
11:50 PM 59.0 °F 57.2 °F 94% 29.89 in 2.5 mi ENE 6.9 mph - N/A Rain Rain